テナグラ彗星

P/2021 S2 ( Tenagra )

English version
Home page
Updated on October 6, 2021

---------------------------------------------------------------------

・ プロフィール

検出日 2021年9月30日
検出光度 20.0等
検出者 E. Schwab (Egelsbach, Germany)

・ 軌道要素

Epoch 2021 Nov. 2.0 TT = JDT 2459520.5                                          
T 2021 Oct. 25.69838 TT                                 Rudenko                 
q   2.9954300            (2000.0)            P               Q                  
n   0.11755149     Peri.  128.02939     +0.54015652     -0.83505972             
a   4.1271534      Node   288.96560     +0.73338513     +0.52794832             
e   0.2742140      Incl.    6.33996     +0.41276772     +0.15474443             
P   8.38                                                                        
From 70 observations 2012 Oct. 6-2021 Oct. 1, mean residual 0".8.               

・ 光度変化

        m1 = 12.5 + 5 logΔ + 10.0 log r

---------------------------------------------------------------------

軌道要素はM.P.E.C. 2021-T44に掲載されたものです。
光度グラフはComet for Windowsで作成したものです。

---------------------------------------------------------------------

Copyright(C) Seiichi Yoshida (comet@aerith.net). All rights reserved.